Location: St. Louis
(38.6270°N, 90.1994°W)
Time: 05:09:52
(UTC-05:00)

deb Delta - Pass Details

Date: 07 July 2022
Orbit: 1084 x 1202 km, 99.8° (Epoch: 15 August)

Event Time Altitude Azimuth Distance (km) Brightness Sun altitude
Exits shadow 02:38:57 45° 231° (SW) 1,583 ? -25.0°
Maximum altitude 02:40:10 49° 260° (W) 1,504 ? -24.9°
Drops below altitude 10° 02:47:05 10° 334° (NNW) 3,119 ? -24.4°
Sets 02:49:48 0° 340° (NNW) 4,073 ? -24.1°
